Temp_Advection
nan nan nan nan nan nan nan nan nan nan nan nan nan nan nan nan nan nan nan nan nan nan nan nan nan nan nan nan nan nan nan nan nan nan nan nan nan nan nan nan nan nan nan nan nan
nan 0 0 0 0 0 0 0 0 0 0 0 0 0 0 0 0 0 0 0 0 0 -0 -0 0 -0 0 -0 0 0 0 -0 -0 -0 -0 -0 -0 -1 -0 -1 -0 0 0 -0 nan
nan 0 0 0 0 0 0 0 0 0 0 0 0 0 0 0 -0 0 0 0 0 0 0 -0 -0 -0 0 -0 0 0 -0 -0 -0 -0 -0 -0 -0 -1 -0 -0 -0 -1 -0 -0 nan
nan 0 0 0 0 0 0 0 0 -0 0 0 0 0 0 0 0 0 0 0 0 0 0 0 -0 -0 0 0 0 0 -0 -0 -0 0 -0 -0 -0 -1 -0 -0 -0 -0 -0 1 nan
nan -0 0 0 0 0 0 0 0 0 -0 0 0 -0 0 -0 0 0 0 0 0 0 -0 -0 -0 -0 -0 -0 -0 -0 -0 -0 -0 0 -0 -0 -0 -0 -1 -1 0 0 0 1 nan
nan -0 -0 0 0 0 0 0 0 0 0 0 0 0 0 -0 -0 0 0 0 0 0 0 -0 -0 0 0 -0 -0 -0 -0 -0 -1 -0 0 -0 -0 -0 -1 -0 0 0 -0 0 nan
nan -0 -0 -0 0 0 0 0 0 0 0 0 0 0 -0 0 0 0 0 0 0 0 0 0 -0 -0 0 -0 -0 0 0 -0 -0 -0 -0 -0 0 -0 -1 -0 -0 0 0 1 nan
nan 0 0 0 0 0 0 0 0 0 0 0 0 -0 -0 0 0 0 0 0 -0 -0 0 0 0 0 -0 -0 -0 0 0 -0 -0 -0 -0 0 0 0 -0 -0 -0 -0 0 -0 nan
nan 0 0 0 0 -0 -0 0 0 0 0 0 0 -0 -0 0 0 0 0 0 0 -0 0 0 0 -0 -0 -0 -0 -0 -0 -0 -0 -0 0 0 -0 -0 -0 -0 -0 -0 -0 -0 nan
nan 0 0 0 0 -0 -0 -0 0 -0 -0 0 0 -0 -0 -0 0 0 0 0 0 0 0 0 -0 -0 -0 -0 -0 -0 -0 -0 -0 -0 0 0 -0 -1 -1 -0 -1 -0 -0 -1 nan
nan 0 0 0 -0 -0 -0 -0 -0 0 -0 -0 0 0 -0 0 0 0 0 0 0 0 0 0 -0 -0 -0 -0 -0 -0 0 -0 -0 -0 0 0 -0 -1 -1 0 -0 -0 -0 -0 nan
nan -0 -0 -0 -0 -0 -0 -0 -0 -0 -1 -1 0 0 -0 -0 -0 0 0 0 0 0 -0 -0 -0 -1 -0 -0 0 0 0 -0 -0 -0 0 0 -1 -0 -0 -0 -1 -1 -1 -0 nan
nan -0 -0 -0 -0 -0 -0 -0 -0 0 -0 -0 -0 -0 0 0 0 0 0 0 0 0 -0 -0 -0 -0 -0 0 0 0 -0 -0 -0 -0 -0 0 -0 -0 -0 -0 -1 -0 -1 -0 nan
nan -0 -0 -0 0 0 0 -0 0 0 0 -1 -0 -0 0 0 0 0 0 0 0 0 0 -0 -0 0 0 0 0 -0 -0 0 0 -0 -0 0 0 -0 -1 0 -0 -1 -1 -0 nan
nan -0 -0 -0 0 0 0 0 0 -0 0 -0 0 0 0 0 0 0 0 0 0 -0 -0 0 -0 0 0 -0 -0 -0 0 0 0 0 -0 0 -0 -1 -0 -0 0 -1 -3 -1 nan
nan 0 -0 -0 -0 0 0 0 -0 -0 -0 -0 -0 0 0 0 0 0 0 0 0 0 0 -0 -0 -0 -0 -0 -0 0 -0 -0 0 0 -0 -0 -0 -0 -0 -0 0 -0 -2 -1 nan
nan 0 0 0 -0 0 0 0 -0 0 -0 -0 0 0 0 0 0 -0 0 0 0 0 -0 -0 0 -0 -0 0 -0 -0 -0 -0 -0 -0 -0 -0 0 -1 -0 -0 0 -1 -2 -0 nan
nan -0 0 0 0 0 0 -0 -0 -0 -0 -0 0 0 0 -0 -0 -0 0 0 -0 -0 0 -0 -0 -0 0 -0 0 0 -0 -0 -0 0 -0 -0 -0 -0 -0 -0 -0 -0 -1 1 nan
nan -1 -0 0 0 0 0 -0 -1 -0 -0 0 0 0 -0 -0 0 0 0 -0 -0 0 -0 -0 -0 -0 -0 -0 -0 -0 -0 -0 0 0 0 -0 -1 -1 -0 -0 -0 -0 1 1 nan
nan -0 -0 -0 0 0 -0 -0 -0 -0 0 0 0 0 -0 -0 0 0 -0 -0 0 -0 -0 0 -0 -0 0 -0 0 0 0 -0 -0 -0 0 0 -0 0 -0 -0 -0 -0 0 0 nan
nan -0 -0 -0 0 0 0 -1 -1 -0 0 0 0 0 -0 -0 0 0 -0 0 0 -0 0 0 0 -0 -0 0 0 -0 -0 -0 -0 -0 0 0 0 -0 -0 -0 -0 0 0 0 nan
nan -0 0 -0 -0 -0 -0 -0 -1 -0 -0 0 0 0 -0 -0 0 0 -0 -0 0 -0 0 0 0 -0 -1 -0 0 -0 -0 -0 0 0 0 0 -0 -0 0 -0 -0 0 0 0 nan
nan -1 -0 -0 -0 -0 -0 -1 -0 -0 -0 -0 0 -0 -0 0 0 0 -0 -0 0 -0 -0 -0 0 -0 -0 0 -0 0 -0 0 -0 -0 -0 -0 -0 0 0 -0 -0 0 -0 0 nan
nan -0 -1 -1 -0 -0 -0 -0 -1 -1 -0 -1 -0 -0 -0 -0 0 -0 -0 -0 0 0 0 0 0 -0 -0 0 0 0 0 0 0 -0 -0 -1 -0 0 0 0 0 0 0 0 nan
nan -0 -1 -1 -0 -1 -0 -0 -0 -1 -1 -1 -0 -1 -1 -0 -0 -0 -0 -1 -0 0 0 0 0 0 -0 -0 0 -0 -1 1 -0 -1 -0 0 0 -0 0 0 0 -0 0 0 nan
nan -0 -0 -1 -1 -0 -0 -0 -0 -0 -0 -1 -0 -1 -0 -0 -0 -0 -1 -0 -0 -0 0 0 -0 -0 -0 -0 0 -0 -1 -0 -0 0 -0 -0 -1 -0 1 0 0 0 0 -0 nan
nan nan nan nan nan nan nan nan nan nan nan nan nan nan nan nan nan nan nan nan nan nan nan nan nan nan nan nan nan nan nan nan nan nan nan nan nan nan nan nan nan nan nan nan nan
Wind_Speed
7 7 6 6 6 5 5 6 7 9 12 14 17 17 17 15 9 10 8 19 15 14 7 4 1 1 1 4 6 2 0 6 5 3 7 13 9 21 19 14 15 19 8 12 40
9 8 9 9 8 8 7 6 7 9 12 14 18 18 17 14 8 9 18 17 14 11 6 5 3 1 3 2 3 1 3 6 6 6 6 11 13 22 11 22 6 8 6 24 45
12 10 10 11 11 11 11 10 10 11 12 14 17 18 16 13 4 11 20 12 11 7 6 5 5 3 1 1 3 2 3 5 13 20 20 15 12 19 13 4 15 19 11 27 41
15 11 10 10 12 14 14 14 14 13 14 15 16 17 15 8 4 14 16 10 7 4 5 4 4 1 3 3 5 4 12 15 16 16 11 6 9 11 7 8 17 13 12 26 33
18 12 11 11 11 13 15 17 17 17 17 17 17 17 14 7 5 12 14 10 6 4 4 5 4 4 3 5 9 5 5 13 19 25 22 19 5 6 19 16 15 11 12 25 34
20 14 14 13 13 12 12 14 17 18 18 17 17 15 12 4 7 10 11 9 6 3 5 5 4 6 6 5 2 7 13 15 18 20 18 12 6 4 11 14 20 9 13 24 34
19 16 16 17 15 12 11 11 13 14 15 14 15 13 13 7 8 9 9 8 7 6 5 6 6 5 6 5 5 10 6 7 9 12 5 8 11 9 14 9 17 10 9 21 35
20 19 16 17 17 13 12 13 13 13 11 11 10 9 6 7 8 9 9 8 6 5 7 7 7 9 4 10 6 2 1 4 4 3 7 3 16 7 4 11 18 13 9 21 28
20 20 19 18 17 14 14 13 12 8 6 6 5 5 6 5 9 9 8 6 5 3 4 5 7 4 5 4 3 6 5 4 7 5 3 5 9 5 6 8 14 17 16 14 21
18 19 20 19 15 14 15 14 8 5 1 2 5 4 5 6 9 12 7 6 4 5 3 3 2 2 3 2 2 4 4 5 6 4 4 9 15 17 24 10 17 24 23 17 22
18 20 21 19 14 16 14 8 6 3 7 7 4 9 11 8 13 9 6 7 5 4 2 3 2 5 8 6 6 5 5 9 8 8 3 7 12 14 20 7 15 22 17 14 24
18 19 21 21 12 14 12 7 6 7 9 9 12 16 16 15 7 9 7 3 3 4 2 2 6 7 6 6 5 7 8 8 8 4 6 9 15 15 13 7 18 24 24 19 13
18 20 20 21 11 15 10 11 8 9 3 5 5 7 6 6 6 5 7 3 5 4 5 5 5 4 4 4 4 6 6 5 5 7 6 6 9 7 8 9 21 25 26 22 14
19 20 20 19 9 15 8 11 9 8 4 4 3 3 3 3 5 5 6 4 3 5 4 6 3 5 4 4 3 4 4 5 6 5 3 4 6 6 10 10 8 21 22 21 14
20 20 19 17 15 11 12 9 7 2 4 3 3 3 3 5 7 4 7 3 5 5 3 7 4 5 5 5 6 7 2 5 4 4 4 3 1 7 4 6 8 10 24 20 19
22 20 21 17 16 11 10 8 1 6 5 3 2 2 2 5 3 3 4 6 5 4 3 9 5 4 6 4 6 3 4 5 1 1 2 4 5 7 3 6 5 7 22 25 23
22 19 19 16 12 10 6 3 5 4 1 3 4 3 2 4 3 5 4 3 3 4 3 5 4 3 3 2 1 3 5 4 5 3 5 3 1 10 8 8 7 9 23 28 25
21 17 16 13 12 7 4 4 3 5 6 1 1 1 4 4 5 2 3 4 5 3 2 2 7 6 3 5 4 4 6 4 4 3 5 3 5 6 4 3 2 7 19 22 23
19 12 9 4 5 6 4 2 8 7 3 2 2 2 3 3 3 1 5 4 6 8 6 2 5 1 4 2 6 2 3 4 2 1 2 3 8 10 4 1 5 7 9 19 18
19 9 6 2 1 6 2 6 4 2 2 1 5 6 4 3 3 2 3 4 3 5 4 2 5 2 2 2 4 4 1 2 2 2 5 5 6 6 7 5 7 4 3 16 19
9 4 8 3 2 2 3 6 5 6 4 1 2 4 6 4 6 4 5 5 4 4 4 3 4 5 1 6 6 3 3 3 2 4 3 3 6 6 5 7 6 2 2 10 25
7 3 6 5 1 1 2 4 12 6 7 5 3 4 5 2 4 5 8 7 9 10 6 5 4 4 10 3 4 4 7 6 4 4 4 3 8 3 4 4 3 4 6 11 17
9 6 8 6 2 3 7 5 4 6 5 4 3 5 1 2 5 5 4 4 9 7 6 5 3 3 8 2 1 5 4 5 2 2 6 3 6 2 4 5 2 9 13 17 21
6 4 5 8 7 5 5 5 7 14 3 11 5 4 6 3 5 6 4 3 3 5 5 6 4 7 9 6 0 4 3 3 5 2 4 8 10 7 7 6 4 10 18 21 23
7 6 7 5 4 10 4 4 7 6 11 14 5 9 7 5 6 5 5 7 5 4 4 3 6 5 10 15 8 16 18 13 12 14 8 16 10 9 8 10 13 18 22 23 25
7 7 10 11 10 6 5 4 8 7 6 9 4 15 13 7 10 7 13 6 8 3 3 3 5 4 6 9 11 10 15 14 18 18 16 21 24 17 15 10 11 21 27 27 26
14 11 5 6 5 3 3 4 9 21 13 7 20 17 13 17 23 32 30 29 23 15 5 4 4 2 9 5 7 6 12 16 6 7 9 9 14 3 4 8 15 24 30 31 28
Wind_Direction
312 308 313 326 326 332 341 346 359 6 5 2 1 359 354 354 334 338 332 337 334 336 342 331 273 134 146 286 289 209 168 257 250 231 267 324 338 325 323 299 267 225 196 199 166
341 310 299 298 305 308 312 323 333 340 346 351 356 355 348 345 331 331 346 348 353 4 8 25 49 304 79 284 284 245 222 220 221 259 282 309 340 310 334 320 347 220 187 174 166
1 341 312 289 286 290 296 302 307 319 328 334 345 350 346 340 337 345 347 356 6 31 42 34 34 37 78 283 256 248 230 245 274 276 286 295 311 321 324 311 337 313 201 181 184
357 349 334 321 295 284 284 288 295 303 313 321 332 340 341 338 1 348 355 358 2 31 32 21 342 327 239 191 226 236 243 252 272 285 306 304 305 307 273 288 342 310 231 186 169
5 8 5 346 330 308 287 282 284 290 299 308 317 327 335 315 313 356 3 358 347 353 15 3 5 338 309 324 324 247 257 269 281 291 291 297 234 262 284 293 324 347 222 203 184
14 12 5 359 346 331 315 297 289 288 289 295 303 313 320 281 326 354 0 6 6 7 6 355 353 321 283 266 262 305 301 288 297 288 279 279 249 250 260 266 296 311 265 219 220
17 7 357 356 353 346 334 318 306 299 294 290 292 301 300 280 314 333 350 7 17 17 352 332 336 328 308 286 285 287 296 304 262 265 273 294 280 212 252 271 278 290 283 231 231
13 9 360 352 351 350 344 329 315 306 298 287 284 289 267 287 302 320 338 341 6 35 16 348 332 314 271 307 306 271 340 329 292 270 262 183 269 94 311 302 290 296 295 226 219
8 8 3 355 353 351 344 336 321 316 302 277 270 271 275 285 292 314 321 313 312 339 339 338 311 301 309 319 342 18 304 278 305 237 259 198 290 298 312 327 297 297 306 255 234
5 3 2 357 352 352 346 339 328 317 321 284 238 281 248 307 299 310 297 308 293 298 299 195 144 343 326 46 279 294 307 289 269 299 220 259 273 282 283 258 272 286 292 278 229
1 0 359 360 355 351 356 348 351 303 290 244 251 269 294 293 298 289 277 299 275 272 255 211 72 252 251 233 236 231 256 254 268 278 300 250 268 281 283 234 256 272 281 288 239
350 353 356 355 354 352 357 30 5 315 308 279 258 260 268 281 278 272 241 257 219 264 180 359 236 234 222 259 256 263 263 270 286 294 306 285 277 277 277 240 248 261 267 278 297
337 341 347 350 345 349 355 8 354 337 286 289 251 262 258 253 265 260 212 235 239 258 223 191 246 181 177 269 283 279 251 270 260 325 281 294 280 265 268 246 254 254 255 262 282
329 329 336 347 348 336 338 348 343 341 52 267 252 250 224 239 274 246 227 258 283 264 266 236 230 205 209 241 217 291 239 278 288 352 261 65 292 259 269 268 229 241 244 245 264
319 320 324 331 329 325 326 334 339 351 14 234 220 229 227 218 309 224 220 214 246 275 37 261 196 216 242 211 169 238 275 259 277 271 320 323 87 274 277 288 265 247 246 240 250
311 312 310 314 317 315 320 330 346 42 261 306 200 236 241 213 239 203 206 226 270 294 221 252 302 196 216 227 183 285 331 301 213 162 346 242 157 279 255 229 280 243 240 234 241
311 304 295 298 297 299 299 305 24 134 319 221 231 186 226 247 247 178 206 211 195 357 328 312 223 262 183 270 25 105 52 333 349 0 235 149 346 250 251 261 237 239 238 224 229
319 309 297 284 275 269 230 57 165 238 232 3 181 258 230 202 242 218 273 279 218 149 306 319 323 187 186 204 190 191 150 152 268 270 275 242 232 258 231 289 332 304 246 207 207
328 315 302 274 258 210 175 89 213 210 219 182 313 237 264 234 229 288 215 225 220 172 175 248 269 258 208 184 145 157 178 182 207 238 24 263 294 307 345 21 350 3 191 187 197
338 342 24 55 155 175 104 235 258 257 109 108 209 190 243 218 184 168 271 205 224 181 149 234 299 243 315 45 261 197 215 65 0 291 288 286 279 240 320 331 312 346 235 194 186
358 67 27 25 139 184 186 240 297 349 339 255 272 289 240 271 207 204 253 278 170 148 138 153 149 288 25 203 195 120 260 220 179 168 221 294 264 216 264 300 267 238 206 202 178
11 61 17 10 9 20 242 323 333 328 313 274 234 237 238 276 265 238 229 224 175 153 173 211 169 261 236 234 208 193 214 172 150 243 232 169 271 233 240 292 270 199 165 179 178
2 328 10 9 68 348 336 315 303 349 325 319 286 221 37 264 290 229 276 328 177 166 175 185 226 324 323 14 45 254 213 215 114 58 218 166 263 219 272 298 275 192 170 167 170
27 352 353 42 53 41 351 294 334 323 275 347 280 329 337 286 234 284 300 324 226 227 197 179 209 197 235 242 169 259 248 220 180 171 238 227 271 264 263 239 217 190 181 169 168
33 44 18 342 339 333 280 274 296 352 344 5 348 39 5 297 315 268 352 337 299 258 183 190 241 199 253 262 261 262 260 243 211 226 219 276 236 257 239 216 206 189 180 173 173
46 13 341 303 319 352 339 325 341 1 337 318 14 345 334 300 312 324 330 350 268 348 221 193 256 236 265 253 242 259 263 248 242 250 248 258 273 266 241 216 184 190 180 178 181
12 352 317 287 328 355 273 354 319 330 302 300 337 328 317 302 308 301 287 278 257 269 244 241 218 192 269 285 309 272 243 236 226 207 212 217 247 223 217 212 197 187 186 186 185
Height
1556 1555 1554 1552 1551 1550 1548 1547 1545 1543 1541 1539 1536 1533 1530 1528 1526 1524 1522 1521 1516 1513 1511 1511 1510 1509 1509 1509 1509 1509 1513 1509 1506 1505 1499 1493 1493 1487 1485 1481 1477 1472 1471 1471 1478
1556 1554 1553 1552 1551 1550 1548 1546 1545 1543 1541 1538 1536 1533 1530 1527 1526 1523 1522 1518 1515 1513 1511 1510 1509 1508 1507 1509 1510 1509 1509 1508 1503 1499 1497 1493 1494 1489 1484 1477 1472 1471 1470 1472 1477
1554 1552 1551 1550 1549 1548 1547 1546 1544 1542 1540 1538 1535 1533 1530 1527 1525 1523 1520 1517 1515 1513 1512 1511 1510 1508 1506 1507 1508 1508 1509 1504 1499 1496 1495 1492 1492 1490 1485 1479 1477 1475 1469 1470 1476
1553 1551 1549 1548 1546 1545 1544 1543 1542 1541 1539 1537 1534 1532 1529 1527 1529 1523 1519 1517 1515 1514 1512 1511 1510 1508 1505 1504 1504 1507 1502 1500 1496 1494 1492 1491 1490 1488 1483 1480 1478 1473 1472 1471 1476
1552 1549 1548 1546 1544 1543 1541 1540 1539 1538 1537 1535 1533 1531 1529 1527 1525 1521 1519 1517 1515 1513 1512 1511 1510 1509 1508 1505 1503 1501 1498 1497 1494 1491 1488 1487 1485 1485 1480 1478 1476 1474 1472 1471 1470
1552 1550 1548 1545 1542 1540 1538 1537 1535 1534 1533 1532 1531 1529 1527 1526 1522 1520 1518 1516 1515 1513 1513 1512 1510 1510 1508 1505 1504 1499 1497 1494 1491 1487 1485 1484 1480 1481 1475 1476 1474 1473 1473 1470 1469
1552 1549 1547 1544 1541 1538 1535 1533 1532 1530 1530 1529 1528 1527 1525 1524 1520 1519 1517 1515 1514 1513 1513 1512 1511 1510 1508 1504 1500 1497 1497 1491 1487 1484 1482 1479 1471 1470 1472 1472 1471 1473 1471 1467 1461
1552 1549 1546 1544 1540 1536 1533 1531 1528 1527 1526 1525 1525 1525 1522 1520 1519 1518 1516 1514 1512 1511 1511 1511 1511 1509 1508 1505 1499 1497 1496 1499 1485 1482 1478 1478 1466 1470 1470 1470 1468 1467 1470 1471 1469
1553 1549 1545 1542 1539 1536 1532 1528 1525 1523 1522 1522 1524 1524 1520 1518 1517 1516 1515 1514 1512 1510 1508 1508 1510 1510 1507 1506 1502 1504 1499 1497 1489 1479 1478 1478 1469 1461 1466 1468 1465 1465 1467 1470 1470
1553 1549 1545 1541 1537 1534 1531 1527 1523 1522 1521 1521 1521 1525 1519 1517 1514 1513 1513 1513 1511 1510 1508 1507 1507 1510 1509 1509 1517 1507 1500 1496 1492 1480 1479 1477 1470 1461 1458 1463 1462 1460 1462 1462 1465
1552 1549 1545 1540 1537 1534 1531 1527 1527 1524 1520 1519 1519 1518 1516 1514 1512 1511 1510 1511 1510 1509 1508 1506 1509 1512 1506 1504 1501 1502 1499 1497 1487 1478 1477 1475 1468 1459 1454 1459 1458 1457 1458 1456 1457
1551 1548 1545 1540 1536 1533 1530 1528 1528 1528 1519 1514 1514 1513 1514 1513 1511 1508 1510 1511 1509 1508 1506 1509 1509 1497 1498 1498 1498 1497 1498 1491 1482 1476 1476 1471 1464 1454 1452 1452 1452 1452 1453 1452 1454
1550 1547 1544 1540 1536 1534 1530 1528 1525 1524 1522 1513 1512 1511 1511 1512 1509 1507 1508 1507 1506 1506 1504 1506 1496 1493 1493 1495 1497 1495 1494 1488 1486 1479 1472 1469 1464 1455 1446 1445 1444 1444 1447 1447 1450
1548 1544 1541 1539 1537 1534 1531 1528 1526 1524 1531 1514 1511 1509 1509 1509 1508 1505 1505 1509 1505 1503 1499 1498 1491 1492 1492 1493 1493 1496 1484 1484 1483 1486 1491 1470 1473 1457 1442 1440 1438 1436 1439 1442 1441
1545 1541 1539 1536 1535 1532 1532 1527 1525 1526 1554 1512 1509 1508 1507 1509 1506 1504 1505 1505 1505 1502 1503 1495 1491 1492 1493 1487 1487 1489 1483 1484 1483 1487 1486 1475 1489 1453 1444 1439 1436 1430 1431 1434 1437
1541 1538 1534 1534 1532 1531 1528 1527 1526 1538 1545 1513 1507 1506 1507 1504 1503 1502 1503 1503 1502 1501 1498 1495 1488 1486 1485 1481 1480 1481 1483 1482 1481 1486 1500 1472 1478 1455 1445 1434 1428 1424 1425 1428 1433
1534 1533 1530 1529 1529 1527 1526 1528 1542 1545 1511 1507 1505 1504 1505 1503 1500 1501 1502 1502 1503 1506 1500 1493 1487 1481 1480 1483 1480 1480 1492 1506 1504 1499 1490 1469 1479 1451 1432 1427 1426 1422 1419 1423 1430
1529 1526 1524 1524 1523 1524 1526 1528 1541 1515 1510 1502 1504 1504 1506 1500 1499 1497 1498 1500 1495 1498 1503 1506 1495 1482 1478 1479 1481 1484 1487 1507 1505 1498 1488 1468 1468 1444 1426 1425 1422 1420 1415 1420 1425
1524 1521 1519 1519 1520 1521 1525 1544 1522 1511 1501 1501 1501 1504 1501 1497 1499 1497 1497 1495 1489 1490 1501 1499 1490 1477 1477 1476 1479 1482 1487 1479 1485 1489 1505 1476 1453 1432 1425 1425 1423 1420 1417 1420 1422
1519 1517 1518 1519 1519 1521 1524 1523 1510 1502 1502 1502 1504 1502 1502 1496 1498 1499 1495 1485 1484 1485 1486 1491 1498 1478 1476 1477 1476 1478 1479 1488 1499 1489 1478 1476 1464 1454 1433 1428 1426 1423 1421 1419 1422
1519 1517 1520 1519 1520 1521 1529 1522 1509 1505 1505 1505 1504 1504 1503 1497 1496 1495 1491 1484 1480 1485 1486 1489 1495 1484 1478 1479 1475 1481 1482 1480 1481 1486 1482 1479 1463 1436 1431 1429 1426 1423 1422 1422 1420
1519 1521 1521 1520 1522 1522 1522 1517 1512 1506 1505 1504 1502 1501 1499 1496 1495 1495 1489 1481 1478 1480 1486 1485 1492 1496 1477 1467 1467 1469 1470 1472 1482 1471 1478 1477 1458 1427 1426 1426 1425 1424 1424 1425 1425
1525 1524 1522 1521 1525 1526 1522 1517 1513 1509 1508 1505 1502 1500 1497 1497 1497 1490 1483 1478 1478 1479 1482 1484 1490 1499 1471 1469 1467 1468 1464 1464 1467 1472 1470 1476 1451 1423 1425 1425 1424 1424 1425 1426 1428
1529 1530 1525 1524 1528 1530 1530 1522 1517 1511 1509 1507 1503 1499 1500 1497 1495 1490 1485 1480 1479 1479 1480 1480 1484 1479 1476 1465 1465 1467 1461 1463 1466 1480 1463 1452 1432 1423 1423 1423 1423 1423 1425 1427 1429
1535 1538 1541 1536 1532 1535 1533 1526 1521 1518 1513 1510 1505 1514 1515 1508 1498 1492 1489 1486 1481 1479 1479 1481 1485 1481 1470 1465 1467 1463 1458 1456 1462 1446 1453 1424 1435 1419 1416 1416 1415 1419 1424 1427 1431
1543 1545 1543 1540 1536 1534 1531 1529 1525 1526 1526 1518 1516 1517 1517 1514 1508 1505 1502 1499 1491 1481 1481 1479 1479 1474 1468 1457 1458 1457 1445 1445 1442 1438 1437 1430 1423 1411 1407 1410 1411 1413 1419 1423 1428
1548 1548 1546 1542 1538 1538 1534 1531 1529 1529 1522 1520 1522 1518 1514 1511 1506 1501 1497 1494 1488 1485 1484 1482 1480 1477 1461 1456 1455 1452 1429 1426 1427 1427 1421 1428 1404 1406 1405 1405 1404 1408 1413 1417 1422